Weather History for West Palm Beach, FL

Change the Weather History Date:

Monday, March 24, 2014

  Actual Average Record
Temperature  
Mean Temperature 69 °F 71 °F  
Max Temperature 73 °F 79 °F 92 °F (1908)
Min Temperature 65 °F 63 °F 43 °F (1968)
Degree Days  
Heating Degree Days 0 0  
Month to date heating degree days 2 22  
Since 1 July heating degree days 117 227  
Cooling Degree Days 4 7  
Month to date cooling degree days 163 144  
Year to date cooling degree days 509 379  
Growing Degree Days 20 (Base 50)    
Moisture  
Dew Point 66 °F    
Average Humidity 83    
Maximum Humidity 93    
Minimum Humidity 73    
Precipitation  
Precipitation 0.68 in 0.16 in 1.73 in (1896)
Month to date precipitation 1.38 3.56  
Year to date precipitation 12.86 9.51  
Snow  
Snow 0.00 in - - ()
Month to date snowfall 0.0  
Since 1 July snowfall 0.0  
Snow Depth 0.00 in    
Sea Level Pressure  
Sea Level Pressure 29.98 in    
Wind  
Wind Speed 7 mph (WNW)    
Max Wind Speed 16 mph    
Max Gust Speed 19 mph    
Visibility 8 miles    
Events Rain    
T = Trace of Precipitation, MM = Missing Value Source: NWS Daily Summary

Daily Weather History Graph

Daily Weather History Graph

Search for Another Location

Airport:

Trip Planner

Search our weather history database for the weather conditions in past years. The results will help you decide how hot, cold, wet, or windy it might be!

Date:

Astronomy

Mar. 24, 2014 Rise Set
Actual Time 7:19 AM EDT 7:33 PM EDT
Civil Twilight 6:56 AM EDT 7:56 PM EDT
Nautical Twilight 6:29 AM EDT 8:23 PM EDT
Astronomical Twilight 6:02 AM EDT 8:51 PM EDT
Moon 2:18 AM EDT (3/24) 1:27 PM EDT (3/24)
Length of Visible Light 13h 00m
Length of Day
12h 13m
Last Quarter, 43% of the Moon is Illuminated
Mar 24
Last Quarter
Mar 30
New
Apr 7
First Quarter
Apr 15
Full
Apr 22
Last Quarter

Hourly Weather History & Observations

Time (EDT) Temp. Dew Point Humidity Pressure Visibility Wind Dir Wind Speed Gust Speed Precip Events Conditions
12:53 AM 73.0 °F 68.0 °F 84% 30.00 in 10.0 mi West 10.4 mph - N/A   Partly Cloudy
1:53 AM 72.0 °F 68.0 °F 87% 29.99 in 10.0 mi West 8.1 mph - N/A   Partly Cloudy
2:53 AM 71.1 °F 69.1 °F 93% 29.97 in 10.0 mi West 6.9 mph - N/A   Scattered Clouds
3:31 AM 71.1 °F 69.1 °F 93% 29.97 in 10.0 mi WNW 9.2 mph - N/A   Scattered Clouds
3:53 AM 71.1 °F 69.1 °F 93% 29.97 in 10.0 mi West 9.2 mph - N/A   Scattered Clouds
4:29 AM 71.1 °F 69.1 °F 93% 29.98 in 10.0 mi WNW 10.4 mph - N/A   Overcast
4:53 AM 71.1 °F 69.1 °F 93% 29.97 in 10.0 mi WNW 10.4 mph - N/A   Overcast
5:34 AM 71.1 °F 68.0 °F 90% 29.98 in 10.0 mi NW 15.0 mph - N/A   Overcast
5:53 AM 71.1 °F 66.9 °F 87% 30.00 in 10.0 mi NW 16.1 mph - N/A   Overcast
6:00 AM 71.1 °F 66.0 °F 84% 30.00 in 10.0 mi NW 13.8 mph - N/A   Overcast
6:22 AM 70.0 °F 66.0 °F 87% 30.00 in 10.0 mi NW 9.2 mph - N/A   Overcast
6:53 AM 70.0 °F 66.0 °F 87% 30.01 in 10.0 mi NW 11.5 mph - N/A   Mostly Cloudy
7:13 AM 70.0 °F 64.9 °F 84% 30.01 in 10.0 mi NNW 13.8 mph - N/A   Overcast
7:50 AM 69.8 °F 64.4 °F 83% 30.01 in 10.0 mi NNW 11.5 mph - N/A   Mostly Cloudy
7:53 AM 70.0 °F 64.9 °F 84% 30.01 in 10.0 mi NNW 10.4 mph - N/A   Mostly Cloudy
8:20 AM 70.0 °F 64.9 °F 84% 30.02 in 10.0 mi NNW 8.1 mph - N/A   Mostly Cloudy
8:53 AM 71.1 °F 64.9 °F 81% 30.02 in 10.0 mi NNW 8.1 mph - N/A   Mostly Cloudy
9:53 AM 72.0 °F 64.9 °F 78% 30.03 in 10.0 mi North 8.1 mph - N/A   Mostly Cloudy
10:53 AM 73.0 °F 64.9 °F 76% 30.04 in 10.0 mi North 8.1 mph - 0.00 in Rain Light Rain
11:53 AM 72.0 °F 66.0 °F 81% 30.04 in 10.0 mi North 6.9 mph - 0.00 in Rain Light Rain
12:53 PM 71.1 °F 66.9 °F 87% 30.04 in 10.0 mi NNW 5.8 mph - 0.01 in Rain Light Rain
1:53 PM 72.0 °F 66.0 °F 81% 30.00 in 10.0 mi Calm Calm - 0.02 in Rain Light Rain
2:53 PM 72.0 °F 64.0 °F 76% 29.97 in 10.0 mi WNW 6.9 mph - 0.00 in   Overcast
3:53 PM 72.0 °F 64.0 °F 76% 29.93 in 10.0 mi WNW 5.8 mph - 0.00 in   Mostly Cloudy
4:53 PM 72.0 °F 63.0 °F 73% 29.91 in 10.0 mi Variable 3.5 mph - 0.01 in   Mostly Cloudy
5:53 PM 70.0 °F 66.0 °F 87% 29.95 in 10.0 mi West 8.1 mph - 0.00 in Rain Light Rain
6:24 PM 69.1 °F 66.0 °F 90% 29.94 in 2.5 mi West 5.8 mph - 0.06 in Rain Rain
6:41 PM 69.1 °F 66.0 °F 90% 29.95 in 5.0 mi West 5.8 mph - 0.07 in Rain Light Rain
6:46 PM 68.0 °F 66.0 °F 93% 29.94 in 2.5 mi WNW 5.8 mph - 0.08 in Rain Heavy Rain
6:53 PM 68.0 °F 66.0 °F 93% 29.94 in 2.5 mi WNW 6.9 mph - 0.14 in Rain Heavy Rain
6:58 PM 66.9 °F 64.0 °F 90% 29.95 in 1.5 mi West 5.8 mph - 0.03 in Rain Heavy Rain
7:25 PM 66.9 °F 64.0 °F 90% 29.94 in 2.0 mi Calm Calm - 0.14 in Rain Heavy Rain
7:37 PM 66.0 °F 64.0 °F 93% 29.94 in 5.0 mi WSW 4.6 mph - 0.16 in Rain Light Rain
7:53 PM 66.0 °F 64.0 °F 93% 29.95 in 5.0 mi WSW 4.6 mph - 0.18 in Rain Light Rain
8:53 PM 66.0 °F 64.0 °F 93% 29.96 in 7.0 mi SW 8.1 mph - 0.09 in Rain Light Rain
9:43 PM 66.0 °F 64.0 °F 93% 29.97 in 10.0 mi WNW 3.5 mph - 0.05 in Rain Light Rain
9:53 PM 66.0 °F 64.0 °F 93% 29.98 in 10.0 mi West 5.8 mph - 0.06 in Rain Light Rain
10:53 PM 66.0 °F 64.0 °F 93% 29.98 in 10.0 mi SW 4.6 mph - 0.03 in Rain Light Rain
11:53 PM 66.0 °F 64.0 °F 93% 29.98 in 8.0 mi SW 6.9 mph - 0.05 in Rain Light Rain